| time (UTC) | temp F | wind direction | speed MPH | gust MPH | rain 1hr in | rain 24hr in | rain mn in | humidity % | barometer mb |
| 20260505073054 | 58 | 215 | 3.0 | 9.0 | 0.00 | 0.05 | 0.00 | 62 | 999.8 |
| 20260505071549 | 58 | 190 | 3.0 | 7.0 | 0.00 | 0.05 | 0.00 | 62 | 999.6 |
| 20260505070052 | 58 | 213 | 2.0 | 6.0 | 0.00 | 0.05 | 0.00 | 60 | 999.6 |
| 20260505064545 | 59 | 195 | 3.0 | 8.0 | 0.00 | 0.05 | 0.00 | 60 | 999.8 |
| 20260505063057 | 59 | 165 | 1.0 | 5.0 | 0.00 | 0.05 | 0.00 | 61 | 1000.0 |
| 20260505061543 | 58 | 192 | 2.0 | 7.0 | 0.00 | 0.05 | 0.00 | 62 | 1000.2 |
| 20260505060038 | 58 | 193 | 4.0 | 7.0 | 0.00 | 0.05 | 0.00 | 62 | 1000.5 |
| 20260505054539 | 57 | 202 | 2.0 | 6.0 | 0.00 | 0.05 | 0.00 | 63 | 1000.5 |
| 20260505053035 | 57 | 179 | 1.0 | 4.0 | 0.00 | 0.05 | 0.00 | 64 | 1000.5 |
| 20260505051533 | 57 | 194 | 1.0 | 4.0 | 0.00 | 0.05 | 0.00 | 64 | 1000.8 |
| 20260505041540 | 57 | 208 | 0.0 | 4.0 | 0.00 | 0.05 | 0.00 | 64 | 1001.3 |
| 20260505040036 | 58 | 211 | 1.0 | 3.0 | 0.00 | 0.05 | 0.00 | 63 | 1001.3 |
| 20260505034524 | 58 | 203 | 1.0 | 4.0 | 0.00 | 0.05 | 0.00 | 63 | 1001.4 |
| 20260505033022 | 59 | 162 | 1.0 | 5.0 | 0.00 | 0.05 | 0.00 | 63 | 1001.5 |
| 20260505031534 | 59 | 211 | 1.0 | 7.0 | 0.00 | 0.05 | 0.00 | 63 | 1001.6 |
| 20260505030122 | 59 | 196 | 1.0 | 4.0 | 0.00 | 0.05 | 0.00 | 63 | 1001.5 |
| 20260505024520 | 59 | 188 | 0.0 | 3.0 | 0.00 | 0.05 | 0.00 | 63 | 1001.7 |
| 20260505023019 | 59 | 205 | 0.0 | 2.0 | 0.00 | 0.05 | 0.00 | 63 | 1001.8 |
| 20260505021519 | 59 | 206 | 0.0 | 1.0 | 0.00 | 0.05 | 0.00 | 62 | 1002.0 |
| 20260505020018 | 60 | 206 | 0.0 | 2.0 | 0.00 | 0.05 | 0.00 | 61 | 1002.2 |
| 20260505014520 | 62 | 210 | 1.0 | 5.0 | 0.00 | 0.05 | 0.00 | 59 | 1002.2 |
| 20260505013017 | 62 | 229 | 3.0 | 8.0 | 0.00 | 0.05 | 0.00 | 58 | 1002.2 |
| 20260505011519 | 63 | 213 | 5.0 | 9.0 | 0.00 | 0.05 | 0.00 | 58 | 1002.2 |
| 20260505010021 | 62 | 224 | 2.0 | 5.0 | 0.00 | 0.05 | 0.00 | 58 | 1001.9 |
| 20260505004515 | 63 | 213 | 4.0 | 9.0 | 0.00 | 0.05 | 0.00 | 56 | 1001.8 |
| 20260505003014 | 63 | 198 | 4.0 | 9.0 | 0.00 | 0.05 | 0.00 | 57 | 1001.6 |
| 20260505001515 | 63 | 206 | 3.0 | 9.0 | 0.00 | 0.05 | 0.00 | 56 | 1001.7 |
| 20260505000013 | 64 | 234 | 4.0 | 10.0 | 0.00 | 0.05 | 0.00 | 56 | 1001.7 |
| 20260504234513 | 64 | 214 | 5.0 | 10.0 | 0.00 | 0.05 | 0.00 | 56 | 1001.6 |
| 20260504233012 | 64 | 234 | 6.0 | 11.0 | 0.00 | 0.05 | 0.00 | 55 | 1001.6 |
| 20260504231511 | 64 | 224 | 3.0 | 8.0 | 0.00 | 0.05 | 0.00 | 56 | 1001.5 |
| 20260504230012 | 64 | 212 | 5.0 | 10.0 | 0.00 | 0.05 | 0.00 | 55 | 1001.4 |
| 20260504224512 | 64 | 232 | 9.0 | 16.0 | 0.00 | 0.05 | 0.00 | 55 | 1001.7 |
| 20260504223013 | 64 | 205 | 8.0 | 17.0 | 0.00 | 0.05 | 0.00 | 54 | 1001.9 |
| 20260504221506 | 64 | 233 | 8.0 | 15.0 | 0.00 | 0.05 | 0.00 | 53 | 1002.0 |
| 20260504220011 | 64 | 205 | 9.0 | 18.0 | 0.00 | 0.05 | 0.00 | 53 | 1001.8 |
| 20260504214504 | 65 | 238 | 8.0 | 19.0 | 0.00 | 0.05 | 0.00 | 53 | 1001.9 |
| 20260504213010 | 65 | 225 | 7.0 | 17.0 | 0.00 | 0.05 | 0.00 | 53 | 1001.7 |
| 20260504211501 | 65 | 217 | 9.0 | 14.0 | 0.00 | 0.05 | 0.00 | 53 | 1001.8 |
| 20260504210101 | 66 | 206 | 9.0 | 16.0 | 0.00 | 0.05 | 0.00 | 54 | 1001.8 |
| 20260504204558 | 66 | 232 | 9.0 | 21.0 | 0.00 | 0.05 | 0.00 | 53 | 1002.0 |
| 20260504203109 | 65 | 242 | 10.0 | 19.0 | 0.00 | 0.05 | 0.00 | 54 | 1001.9 |
| 20260504201558 | 65 | 248 | 11.0 | 24.0 | 0.00 | 0.05 | 0.00 | 55 | 1002.1 |
| 20260504200059 | 65 | 250 | 8.0 | 22.0 | 0.00 | 0.05 | 0.00 | 55 | 1002.1 |
| 20260504194550 | 63 | 225 | 8.0 | 14.0 | 0.00 | 0.05 | 0.00 | 58 | 1002.2 |
| 20260504193050 | 63 | 257 | 4.0 | 16.0 | 0.00 | 0.05 | 0.00 | 59 | 1002.5 |
| 20260504191555 | 63 | 249 | 9.0 | 18.0 | 0.00 | 0.05 | 0.00 | 59 | 1002.6 |
| 20260504190046 | 61 | 229 | 6.0 | 12.0 | 0.00 | 0.05 | 0.00 | 63 | 1002.8 |
| 20260504184539 | 60 | 244 | 6.0 | 11.0 | 0.00 | 0.05 | 0.00 | 65 | 1003.0 |
| 20260504183037 | 59 | 204 | 4.0 | 8.0 | 0.00 | 0.05 | 0.00 | 67 | 1003.4 |
| 20260504181543 | 59 | 232 | 5.0 | 14.0 | 0.00 | 0.05 | 0.00 | 66 | 1003.5 |
| 20260504180034 | 59 | 222 | 7.0 | 11.0 | 0.00 | 0.05 | 0.00 | 67 | 1003.5 |
| 20260504174530 | 58 | 244 | 4.0 | 11.0 | 0.00 | 0.05 | 0.00 | 68 | 1003.6 |
| 20260504173027 | 59 | 225 | 7.0 | 16.0 | 0.00 | 0.05 | 0.00 | 68 | 1003.7 |
| 20260504171524 | 57 | 237 | 8.0 | 15.0 | 0.00 | 0.05 | 0.00 | 70 | 1003.9 |
| 20260504170120 | 57 | 253 | 6.0 | 13.0 | 0.00 | 0.05 | 0.00 | 73 | 1004.0 |
| 20260504150107 | 52 | 234 | 8.0 | 15.0 | 0.00 | 0.05 | 0.00 | 83 | 1004.6 |